When you browse on this site, cookies collect data to enhance your experience and personalize the content and advertising you see.
Visit our Privacy Policy to learn more. By continuing to use the site, you agree to this use of cookies and data.
  • In Spain
  • List of Countries
  • For 7 days
  • Water Temperature
  • Weather Map
  • Weather Widgets
  • user-avatar
    Login

    Hourly Weather Nakhchivan

    Today, 4 April, Saturday

    Time Temperature Precipitation Wind Pressure Humidity
    00:00 +15°C° 0 mm 2 mps 685 mmHg 51%
    01:00 +14°C° 0.5 mm 2 mps 685 mmHg 60%
    02:00 +13°C° 0.5 mm 2 mps 685 mmHg 69%
    03:00 +12°C° 0 mm 1 mps 684 mmHg 78%
    04:00 +12°C° 0.4 mm 1 mps 685 mmHg 77%
    05:00 +11°C° 0.4 mm 1 mps 685 mmHg 76%
    06:00 +11°C° 0.4 mm 1 mps 685 mmHg 75%
    07:00 +12°C° 0.6 mm 1 mps 685 mmHg 68%
    08:00 +13°C° 0.6 mm 1 mps 686 mmHg 61%
    09:00 +14°C° 0 mm 1 mps 686 mmHg 50%
    10:00 +15°C° 0.2 mm 2 mps 686 mmHg 47%
    11:00 +14°C° 0.2 mm 3 mps 686 mmHg 45%
    12:00 +15°C° 0.2 mm 4 mps 687 mmHg 42%
    13:00 +15°C° 0.1 mm 4 mps 687 mmHg 42%
    14:00 +15°C° 0.1 mm 5 mps 687 mmHg 43%
    15:00 +15°C° 0.1 mm 6 mps 687 mmHg 43%
    16:00 +15°C° 0 mm 5 mps 687 mmHg 45%
    17:00 +14°C° 0 mm 5 mps 688 mmHg 46%
    18:00 +14°C° 0 mm 4 mps 688 mmHg 48%
    19:00 +13°C° 0 mm 3 mps 689 mmHg 52%
    20:00 +14°C° 0 mm 2 mps 689 mmHg 55%
    21:00 +13°C° 0 mm 2 mps 690 mmHg 59%
    22:00 +13°C° 0 mm 1 mps 690 mmHg 61%
    23:00 +12°C° 0 mm 1 mps 690 mmHg 63%

    Tomorrow, 5 April, Sunday

    Time Temperature Precipitation Wind Pressure Humidity
    00:00 +12°C° 0 mm 1 mps 691 mmHg 65%
    01:00 +11°C° 0 mm 1 mps 690 mmHg 66%
    02:00 +11°C° 0 mm 1 mps 690 mmHg 67%
    03:00 +10°C° 0 mm 1 mps 690 mmHg 68%
    04:00 +9°C° 0 mm 0 mps 690 mmHg 70%
    05:00 +9°C° 0 mm 0 mps 691 mmHg 71%
    06:00 +9°C° 0 mm 0 mps 691 mmHg 72%
    07:00 +10°C° 0 mm 0 mps 691 mmHg 65%
    08:00 +11°C° 0 mm 0 mps 691 mmHg 59%
    09:00 +12°C° 0 mm 0 mps 691 mmHg 52%
    10:00 +15°C° 0 mm 1 mps 691 mmHg 48%
    11:00 +16°C° 0 mm 1 mps 691 mmHg 44%
    12:00 +18°C° 0 mm 1 mps 691 mmHg 40%
    13:00 +19°C° 0 mm 1 mps 690 mmHg 37%
    14:00 +19°C° 0 mm 1 mps 690 mmHg 34%
    15:00 +20°C° 0 mm 1 mps 690 mmHg 31%
    16:00 +20°C° 0 mm 1 mps 689 mmHg 33%
    17:00 +20°C° 0 mm 1 mps 689 mmHg 35%
    18:00 +20°C° 0 mm 1 mps 689 mmHg 37%
    19:00 +19°C° 0 mm 1 mps 689 mmHg 41%
    20:00 +18°C° 0 mm 1 mps 689 mmHg 45%
    21:00 +16°C° 0 mm 1 mps 689 mmHg 48%
    22:00 +16°C° 0 mm 1 mps 689 mmHg 47%
    23:00 +16°C° 0 mm 1 mps 689 mmHg 46%

    Day after tomorrow, 6 April, Monday

    Time Temperature Precipitation Wind Pressure Humidity
    00:00 +16°C° 0 mm 1 mps 689 mmHg 45%
    01:00 +16°C° 0 mm 1 mps 688 mmHg 47%
    02:00 +15°C° 0 mm 1 mps 688 mmHg 49%
    03:00 +15°C° 0 mm 1 mps 688 mmHg 51%
    04:00 +15°C° 0 mm 1 mps 687 mmHg 53%
    05:00 +13°C° 0 mm 0 mps 687 mmHg 55%
    06:00 +13°C° 0 mm 0 mps 687 mmHg 57%
    07:00 +15°C° 0 mm 1 mps 687 mmHg 53%
    08:00 +16°C° 0 mm 1 mps 687 mmHg 50%
    09:00 +16°C° 0 mm 1 mps 688 mmHg 46%
    10:00 +16°C° 0.1 mm 1 mps 688 mmHg 48%
    11:00 +16°C° 0.1 mm 2 mps 688 mmHg 49%
    12:00 +16°C° 0.1 mm 2 mps 688 mmHg 51%
    13:00 +16°C° 0.3 mm 2 mps 687 mmHg 55%
    14:00 +16°C° 0.3 mm 2 mps 687 mmHg 59%
    15:00 +15°C° 0.3 mm 1 mps 687 mmHg 63%
    16:00 +15°C° 1.9 mm 1 mps 687 mmHg 71%
    17:00 +14°C° 1.9 mm 1 mps 687 mmHg 79%
    18:00 +13°C° 1.9 mm 1 mps 687 mmHg 88%
    19:00 +13°C° 1.3 mm 1 mps 687 mmHg 88%
    20:00 +13°C° 1.3 mm 1 mps 687 mmHg 89%
    21:00 +13°C° 1.3 mm 1 mps 687 mmHg 89%
    22:00 +13°C° 0.4 mm 1 mps 687 mmHg 89%
    23:00 +13°C° 0.4 mm 1 mps 687 mmHg 88%

    7 April, Tuesday

    Time Temperature Precipitation Wind Pressure Humidity
    00:00 +13°C° 0.4 mm 1 mps 687 mmHg 87%
    01:00 +12°C° 1.7 mm 1 mps 687 mmHg 88%
    02:00 +12°C° 1.7 mm 1 mps 687 mmHg 88%
    03:00 +12°C° 1.7 mm 1 mps 687 mmHg 89%
    04:00 +12°C° 0.4 mm 2 mps 687 mmHg 86%
    05:00 +10°C° 0.4 mm 2 mps 687 mmHg 83%
    06:00 +10°C° 0.4 mm 2 mps 687 mmHg 80%
    07:00 +10°C° 0.4 mm 3 mps 687 mmHg 78%
    08:00 +10°C° 0.4 mm 4 mps 687 mmHg 76%
    09:00 +8°C° 0.4 mm 4 mps 687 mmHg 73%
    10:00 +8°C° 0.2 mm 4 mps 687 mmHg 74%
    11:00 +9°C° 0.2 mm 3 mps 687 mmHg 75%
    12:00 +8°C° 0.2 mm 3 mps 687 mmHg 75%
    13:00 +8°C° 0.1 mm 3 mps 687 mmHg 73%
    14:00 +8°C° 0.1 mm 2 mps 687 mmHg 72%
    15:00 +8°C° 0.1 mm 2 mps 686 mmHg 70%
    16:00 +8°C° 0 mm 2 mps 687 mmHg 70%
    17:00 +8°C° 0 mm 2 mps 687 mmHg 69%
    18:00 +8°C° 0 mm 2 mps 687 mmHg 69%
    19:00 +7°C° 0.1 mm 2 mps 687 mmHg 71%
    20:00 +5°C° 0.1 mm 3 mps 688 mmHg 73%
    21:00 +5°C° 0.1 mm 3 mps 688 mmHg 75%
    22:00 +4°C° 0 mm 3 mps 688 mmHg 76%
    23:00 +4°C° 0 mm 3 mps 688 mmHg 78%

    8 April, Wednesday

    Time Temperature Precipitation Wind Pressure Humidity
    00:00 +4°C° 0 mm 3 mps 688 mmHg 79%
    01:00 +4°C° 0 mm 3 mps 688 mmHg 77%
    02:00 +4°C° 0 mm 3 mps 689 mmHg 75%
    03:00 +5°C° 0 mm 2 mps 689 mmHg 72%
    04:00 +4°C° 0 mm 2 mps 689 mmHg 71%
    05:00 +4°C° 0 mm 2 mps 690 mmHg 70%
    06:00 +4°C° 0 mm 2 mps 690 mmHg 69%
    07:00 +3°C° 0 mm 3 mps 690 mmHg 66%
    08:00 +4°C° 0 mm 3 mps 690 mmHg 63%
    09:00 +4°C° 0 mm 3 mps 690 mmHg 60%
    10:00 +5°C° 0 mm 3 mps 690 mmHg 57%
    11:00 +7°C° 0 mm 3 mps 690 mmHg 55%
    12:00 +8°C° 0 mm 3 mps 690 mmHg 52%
    13:00 +9°C° 0 mm 3 mps 689 mmHg 50%
    14:00 +10°C° 0 mm 3 mps 689 mmHg 49%
    15:00 +11°C° 0 mm 3 mps 689 mmHg 48%
    16:00 +10°C° 0 mm 3 mps 688 mmHg 50%
    17:00 +10°C° 0 mm 3 mps 688 mmHg 52%
    18:00 +9°C° 0 mm 3 mps 688 mmHg 54%
    19:00 +8°C° 0 mm 3 mps 688 mmHg 58%
    20:00 +7°C° 0 mm 3 mps 688 mmHg 61%
    21:00 +5°C° 0 mm 3 mps 688 mmHg 65%
    22:00 +5°C° 0 mm 3 mps 688 mmHg 66%
    23:00 +6°C° 0 mm 2 mps 688 mmHg 68%

    9 April, Thursday

    Time Temperature Precipitation Wind Pressure Humidity
    00:00 +5°C° 0 mm 2 mps 687 mmHg 69%
    01:00 +5°C° 0 mm 2 mps 687 mmHg 70%
    02:00 +5°C° 0 mm 2 mps 686 mmHg 70%
    03:00 +6°C° 0 mm 1 mps 686 mmHg 71%
    04:00 +6°C° 0 mm 1 mps 685 mmHg 71%
    05:00 +6°C° 0 mm 1 mps 685 mmHg 71%
    06:00 +6°C° 0 mm 1 mps 685 mmHg 71%
    07:00 +7°C° 0 mm 1 mps 685 mmHg 67%
    08:00 +8°C° 0 mm 1 mps 685 mmHg 64%
    09:00 +9°C° 0 mm 1 mps 684 mmHg 60%
    10:00 +10°C° 0 mm 1 mps 684 mmHg 57%
    11:00 +11°C° 0 mm 1 mps 684 mmHg 54%
    12:00 +12°C° 0 mm 1 mps 683 mmHg 52%
    13:00 +13°C° 0 mm 1 mps 683 mmHg 51%
    14:00 +14°C° 0 mm 1 mps 683 mmHg 50%
    15:00 +15°C° 0 mm 1 mps 682 mmHg 49%
    16:00 +14°C° 0.2 mm 1 mps 682 mmHg 55%
    17:00 +13°C° 0.2 mm 1 mps 682 mmHg 61%
    18:00 +13°C° 0.2 mm 1 mps 681 mmHg 66%
    19:00 +12°C° 0.2 mm 1 mps 682 mmHg 69%
    20:00 +12°C° 0.2 mm 2 mps 682 mmHg 72%
    21:00 +10°C° 0.2 mm 2 mps 682 mmHg 75%
    22:00 +10°C° 0 mm 2 mps 682 mmHg 75%
    23:00 +9°C° 0 mm 2 mps 682 mmHg 74%
    Show more